Miscellaneous Local Product
Issued by NWS Hastings, NE

Home | Current Version | Previous Version | Text Only | Print | Product List | Glossary Off
Versions: 1 2 3 4 5 6 7 8 9 10 11 12 13 14 15 16 17 18 19 20 21 22 23 24 25 26 27 28 29 30 31 32 33 34 35 36 37 38 39 40 41 42 43 44 45 46 47 48 49 50

000
AXUS43 KGID 162302
MISGRI

GID CWA HOURLY WEATHER ROUNDUP
NATIONAL WEATHER SERVICE HASTINGS NE
600 PM CDT WED APR 16 2014

NOTE: "FAIR" INDICATES FEW OR NO CLOUDS BELOW 12,000 FEET WITH NO
SIGNIFICANT WEATHER AND/OR OBSTRUCTIONS TO VISIBILITY.

...SOUTH CENTRAL NEBRASKA...

CITY           SKY/WX    TMP DP  RH WIND       PRES   REMARKS
GRAND ISLAND   PTSUNNY   45  31  58 N25G32    29.96R
HASTINGS       MOSUNNY   49  33  54 N23G32    29.93R
KEARNEY        MOSUNNY   50  34  53 N25G31    29.95R
ORD            CLOUDY    38  28  67 N25G35    29.98R WCI  27
YORK           CLOUDY    45  32  61 NW21G29   29.92R
AURORA         CLOUDY    46  33  61 N25G33    29.92R
LEXINGTON      MOSUNNY   52  35  51 N22       29.96R
HOLDREGE       SUNNY     51  34  51 N16G26    29.93R
HEBRON         SUNNY     52  34  50 NW18G32   29.90R

...NEBRASKA PANHANDLE...

CITY           SKY/WX    TMP DP  RH WIND       PRES   REMARKS
CHADRON        PTSUNNY   47  34  60 NE9       30.01R
ALLIANCE       MOSUNNY   47  33  58 NE20G25   29.97R
SCOTTSBLUFF    MOSUNNY   52  28  39 N17G23    29.96R
SIDNEY         CLOUDY    50  28  42 NE18G25   29.97R

...WESTERN AND NORTH CENTRAL NEBRASKA...

CITY           SKY/WX    TMP DP  RH WIND       PRES   REMARKS
VALENTINE      CLOUDY    34  27  75 N18G24    30.05R WCI  23
AINSWORTH      CLOUDY    34  29  83 N21G26    30.03R WCI  22
ONEILL         CLOUDY    35  26  69 N30       29.99R WCI  22
BROKEN BOW     CLOUDY    41  31  67 N26G33    29.97R
IMPERIAL       MOSUNNY   53  32  44 N20       29.96R
NORTH PLATTE   CLOUDY    46  33  60 N20G26    29.98R
MCCOOK         CLOUDY    54  34  46 N16       29.94R

...EASTERN NEBRASKA...

CITY           SKY/WX    TMP DP  RH WIND       PRES   REMARKS
NORFOLK        CLOUDY    37  29  72 NW32G40   29.90R WCI  24
SO SIOUX CITY  LGT RAIN  40  36  86 NW21      29.82R WCI  30
TEKAMAH        CLOUDY    43  32  65 NW32G40   29.83R
COLUMBUS       CLOUDY    41  27  56 NW28G36   29.91R
ALBION         CLOUDY    38  28  67 NW23G31   29.95R WCI  27
OMAHA EPPLEY   PTSUNNY   50  33  52 NW29G38   29.83R
OFFUTT AFB     MOSUNNY   53  35  50 NW29G37   29.80R
MILLARD        MOSUNNY   51  33  50 NW25G33   29.80R
LINCOLN        SUNNY     50  31  48 NW26G41   29.88R
NEBRASKA CITY  MOSUNNY   62  37  38 NW28G33   29.75R
BEATRICE       SUNNY     54  35  48 NW31G37   29.86R
FALLS CITY     NOT AVBL

...NORTHERN KANSAS...

CITY           SKY/WX    TMP DP  RH WIND       PRES   REMARKS
GOODLAND       CLOUDY    54  28  36 N26G32    29.94R
HILL CITY      PTSUNNY   58  32  37 N24G31    29.94R
PHILLIPSBURG   MOSUNNY   57  32  38 N18G25    29.93R
SMITH CENTER   MOSUNNY   54  36  50 N20G26    29.93R
BELOIT         SUNNY     59  36  41 NW24G32   29.89R
HAYS           MOSUNNY   64  34  32 N26G35    29.90R
RUSSELL        MOSUNNY   64  34  32 N23G30    29.87R
CONCORDIA      MOSUNNY   61  37  41 NW23G30   29.87R
SALINA         PTSUNNY   72  36  26 NW16      29.83R
TOPEKA         PTSUNNY   68  30  24 S13G28    29.82S



USA.gov is the U.S. government's official web portal to all federal, state and local government web resources and services.